Location: Newark
(54.9353°N, 24.1167°E)
Time: 09:25:08
(UTC+00:00)

Envisat - Pass Details

Date: 30 September 2020
Orbit: 764 x 766 km, 98.1° (Epoch: 23 October)

Event Time Altitude Azimuth Distance (km) Brightness Sun altitude
Rises 16:41:28 0° 205° (SSW) 3,224 6.5 -6.6°
Reaches altitude 10° 16:44:16 10° 221° (SW) 2,303 6.0 -7.0°
Maximum altitude 16:48:09 22° 271° (W) 1,640 6.0 -7.6°
Drops below altitude 10° 16:52:04 10° 321° (NW) 2,316 6.2 -8.2°
Sets 16:54:55 0° 337° (NNW) 3,247 6.7 -8.6°
